sat.trackr.live / text

‹ back to catalog

STARLINK-11525 [DTC]

NORAD 62566 · 2025-006N

PAYLOAD ACTIVE UNKNOWN

§ Identity

Operator
Country
US
Launch date
2025-01-10
Launch site
AFETR
Launch vehicle
Mass (kg)
RCS (m²)

Purposes: comms

External: N2YO · Heavens-Above · Gunter

§ Orbital elements

Epoch: 2026-05-25T02:14:57.408864Z

Period
91.67 min
Inclination
43.0034°
Eccentricity
0.0002429
Mean motion
15.70840816 rev/d
Perigee alt
354.9 km
Apogee alt
358.1 km
Semi-major
6,734.6 km
B*
1.0589e-4
RAAN
39.8108°
Arg perigee
254.1074°
Mean anomaly
105.9526°
Rev number
7,861

§ Raw data

STARLINK-11525 [DTC]1 62566U 25006N   26145.09372001  .00013160  00000+0  10589-3 0  99942 62566  43.0034  39.8108 0002429 254.1074 105.9526 15.70840816 78610

JSON: /api/v1/satellites/62566 · /tle

For live sub-satellite position, see the globe view (requires WebGL).

§ Visibility from observer

Set your observer location to see the next 7 days of passes ≥ 10°. The values pass through the URL so the page stays shareable.

No JS? Fill the form by hand. The geolocation button needs JavaScript.